"read_dt","SO2 (ppb)","flags","PMT voltage (V)","lamp voltage (V)","lamp intensity (Hz)","internal temp (C)","react chamber temp (C)","sample flow (l/min)","pres (mmHg)","SO2 bkg (ppb)","SO2 coefficient"
2017-03-23 00:00:00,1667E-3,5C000400,-0724,0840,11992,032.2,045.6,0.213,756.1,01.16,0.508
2017-03-23 00:01:00,1831E-3,5C000400,-0724,0840,12110,032.2,045.6,0.213,756.1,01.16,0.508
2017-03-23 00:02:00,1648E-3,5C000400,-0724,0840,12123,032.2,045.6,0.213,756.1,01.16,0.508
2017-03-23 00:03:00,1714E-3,5C000400,-0724,0840,11954,032.2,045.6,0.212,756.2,01.16,0.508
2017-03-23 00:04:00,1800E-3,5C000400,-0724,0840,12157,032.2,045.6,0.213,756.0,01.16,0.508
2017-03-23 00:05:00,1874E-3,5C000400,-0724,0839,12055,032.2,045.6,0.213,756.1,01.16,0.508
2017-03-23 00:06:00,1774E-3,5C000400,-0724,0840,11965,032.2,045.6,0.213,756.1,01.16,0.508
2017-03-23 00:07:00,1796E-3,5C000400,-0724,0839,12198,032.2,045.6,0.213,756.2,01.16,0.508
2017-03-23 00:08:00,1862E-3,5C000400,-0724,0840,11911,032.2,045.6,0.213,756.2,01.16,0.508
2017-03-23 00:09:00,1766E-3,5C000400,-0724,0840,12040,032.2,045.6,0.213,756.2,01.16,0.508
2017-03-23 00:10:00,1737E-3,5C000400,-0724,0840,12150,032.2,045.6,0.212,756.3,01.16,0.508
2017-03-23 00:11:00,1699E-3,5C000400,-0724,0839,12062,032.2,045.6,0.213,756.2,01.16,0.508
2017-03-23 00:12:00,1755E-3,5C000400,-0724,0840,11999,032.2,045.6,0.212,756.2,01.16,0.508
2017-03-23 00:13:00,1661E-3,5C000400,-0724,0839,11950,032.2,045.6,0.213,756.2,01.16,0.508
2017-03-23 00:14:00,1814E-3,5C000400,-0724,0839,11992,032.2,045.6,0.213,756.2,01.16,0.508
2017-03-23 00:15:00,1795E-3,5C000400,-0724,0840,11950,032.2,045.6,0.213,756.2,01.16,0.508
2017-03-23 00:16:00,1841E-3,5C000400,-0724,0839,12077,032.2,045.6,0.213,756.2,01.16,0.508
2017-03-23 00:17:00,1746E-3,5C000400,-0724,0840,12067,032.2,045.6,0.212,756.2,01.16,0.508
2017-03-23 00:18:00,1622E-3,5C000400,-0724,0840,12054,032.2,045.6,0.213,756.2,01.16,0.508
2017-03-23 00:19:00,1790E-3,5C000400,-0724,0839,12107,032.2,045.6,0.212,756.2,01.16,0.508
2017-03-23 00:20:00,1639E-3,5C000400,-0724,0839,12065,032.2,045.6,0.213,756.1,01.16,0.508
2017-03-23 00:21:00,1748E-3,5C000400,-0724,0839,12136,032.2,045.6,0.213,756.2,01.16,0.508
2017-03-23 00:22:00,1840E-3,5C000400,-0724,0839,11919,032.2,045.6,0.213,756.2,01.16,0.508
2017-03-23 00:23:00,1774E-3,5C000400,-0724,0839,12015,032.3,045.6,0.213,756.2,01.16,0.508
2017-03-23 00:24:00,1684E-3,5C000400,-0724,0839,12033,032.2,045.6,0.212,756.2,01.16,0.508
2017-03-23 00:25:00,1703E-3,5C000400,-0724,0840,11916,032.3,045.6,0.213,756.1,01.16,0.508
2017-03-23 00:26:00,1662E-3,5C000400,-0724,0839,11995,032.2,045.6,0.212,756.2,01.16,0.508
2017-03-23 00:27:00,1695E-3,5C000400,-0724,0840,12117,032.2,045.6,0.213,756.2,01.16,0.508
2017-03-23 00:28:00,1732E-3,5C000400,-0724,0839,12073,032.2,045.6,0.212,756.3,01.16,0.508
2017-03-23 00:29:00,1650E-3,5C000400,-0724,0840,12055,032.3,045.6,0.213,756.2,01.16,0.508
2017-03-23 00:30:00,1675E-3,5C000400,-0724,0839,12072,032.3,045.6,0.212,756.2,01.16,0.508
2017-03-23 00:31:00,1741E-3,5C000400,-0724,0840,12068,032.3,045.6,0.213,756.2,01.16,0.508
2017-03-23 00:32:00,1752E-3,5C000400,-0724,0841,12181,032.3,045.6,0.213,756.1,01.16,0.508
2017-03-23 00:33:00,1788E-3,5C000400,-0724,0839,11935,032.3,045.6,0.213,756.1,01.16,0.508
2017-03-23 00:34:00,1856E-3,5C000400,-0724,0840,12151,032.3,045.6,0.213,756.0,01.16,0.508
2017-03-23 00:35:00,1735E-3,5C000400,-0724,0840,12170,032.3,045.6,0.213,756.0,01.16,0.508
2017-03-23 00:36:00,1864E-3,5C000400,-0724,0839,12074,032.3,045.6,0.213,756.0,01.16,0.508
2017-03-23 00:37:00,1733E-3,5C000400,-0724,0840,12111,032.3,045.6,0.213,756.0,01.16,0.508
2017-03-23 00:38:00,1840E-3,5C000400,-0724,0839,12012,032.3,045.6,0.212,755.9,01.16,0.508
2017-03-23 00:39:00,1725E-3,5C000400,-0724,0839,11956,032.3,045.6,0.212,755.7,01.16,0.508
2017-03-23 00:40:00,1708E-3,5C000400,-0724,0839,12055,032.3,045.6,0.213,755.9,01.16,0.508
2017-03-23 00:41:00,1760E-3,5C000400,-0724,0839,12103,032.2,045.6,0.213,755.8,01.16,0.508
2017-03-23 00:42:00,1844E-3,5C000400,-0724,0840,12093,032.2,045.6,0.213,755.7,01.16,0.508
2017-03-23 00:43:00,1674E-3,5C000400,-0724,0840,12136,032.2,045.6,0.213,755.8,01.16,0.508
2017-03-23 00:44:00,1757E-3,5C000400,-0724,0840,11917,032.2,045.6,0.213,755.6,01.16,0.508
2017-03-23 00:45:00,1779E-3,5C000400,-0724,0839,11972,032.2,045.6,0.213,755.6,01.16,0.508
2017-03-23 00:46:00,1770E-3,5C000400,-0724,0840,12080,032.2,045.6,0.213,755.7,01.16,0.508
2017-03-23 00:47:00,1874E-3,5C000400,-0724,0839,11966,032.2,045.6,0.212,755.7,01.16,0.508
2017-03-23 00:48:00,1783E-3,5C000400,-0724,0839,11999,032.2,045.6,0.213,755.6,01.16,0.508
2017-03-23 00:49:00,1873E-3,5C000400,-0724,0839,11960,032.2,045.6,0.212,755.6,01.16,0.508
2017-03-23 00:50:00,1729E-3,5C000400,-0724,0839,12049,032.2,045.6,0.213,755.6,01.16,0.508
2017-03-23 00:51:00,1653E-3,5C000400,-0724,0840,12183,032.2,045.6,0.213,755.5,01.16,0.508
2017-03-23 00:52:00,1690E-3,5C000400,-0724,0839,12005,032.2,045.6,0.212,755.4,01.16,0.508
2017-03-23 00:53:00,1720E-3,5C000400,-0724,0839,11988,032.2,045.6,0.213,755.5,01.16,0.508
2017-03-23 00:54:00,1811E-3,5C000400,-0724,0839,12027,032.2,045.6,0.212,755.4,01.16,0.508
2017-03-23 00:55:00,1776E-3,5C000400,-0724,0839,12021,032.2,045.6,0.213,755.5,01.16,0.508
2017-03-23 00:56:00,1725E-3,5C000400,-0724,0840,12042,032.2,045.6,0.212,755.2,01.16,0.508
2017-03-23 00:57:00,1715E-3,5C000400,-0724,0840,12076,032.2,045.6,0.213,755.3,01.16,0.508
2017-03-23 00:58:00,1726E-3,5C000400,-0724,0839,12112,032.2,045.6,0.213,755.2,01.16,0.508
2017-03-23 00:59:00,1862E-3,5C000400,-0724,0839,12038,032.2,045.6,0.213,755.4,01.16,0.508
2017-03-23 01:00:00,1713E-3,5C000400,-0724,0839,12100,032.2,045.6,0.213,755.3,01.16,0.508
2017-03-23 01:01:00,1630E-3,5C000400,-0724,0839,11959,032.2,045.6,0.213,755.4,01.16,0.508
2017-03-23 01:02:00,1715E-3,5C000400,-0724,0839,12039,032.2,045.6,0.213,755.3,01.16,0.508
2017-03-23 01:03:00,1839E-3,5C000400,-0724,0839,12002,032.2,045.6,0.213,755.3,01.16,0.508
2017-03-23 01:04:00,1785E-3,5C000400,-0724,0840,12048,032.1,045.6,0.213,755.3,01.16,0.508
2017-03-23 01:05:00,1883E-3,5C000400,-0724,0840,11917,032.2,045.6,0.213,755.2,01.16,0.508
2017-03-23 01:06:00,1605E-3,5C000400,-0724,0840,11921,032.2,045.6,0.213,755.2,01.16,0.508
2017-03-23 01:07:00,1803E-3,5C000400,-0724,0840,12010,032.2,045.6,0.213,755.2,01.16,0.508
2017-03-23 01:08:00,1706E-3,5C000400,-0724,0839,12035,032.1,045.6,0.213,755.1,01.16,0.508
2017-03-23 01:09:00,1724E-3,5C000400,-0724,0839,11967,032.2,045.6,0.213,755.1,01.16,0.508
2017-03-23 01:10:00,1667E-3,5C000400,-0724,0839,12074,032.2,045.6,0.212,755.0,01.17,0.508
2017-03-23 01:11:00,1682E-3,5C000400,-0724,0840,11970,032.2,045.6,0.213,754.9,01.17,0.508
2017-03-23 01:12:00,1674E-3,5C000400,-0724,0839,11952,032.2,045.6,0.213,755.1,01.16,0.508
2017-03-23 01:13:00,1813E-3,5C000400,-0724,0839,12031,032.2,045.6,0.213,754.9,01.17,0.508
2017-03-23 01:14:00,1790E-3,5C000400,-0724,0839,11996,032.2,045.6,0.213,754.8,01.17,0.508
2017-03-23 01:15:00,1716E-3,5C000400,-0724,0840,12026,032.2,045.6,0.213,755.0,01.17,0.508
2017-03-23 01:16:00,1790E-3,5C000400,-0724,0839,12062,032.2,045.6,0.213,754.9,01.17,0.508
2017-03-23 01:17:00,1808E-3,5C000400,-0724,0839,11999,032.2,045.6,0.213,754.6,01.17,0.508
2017-03-23 01:18:00,1697E-3,5C000400,-0724,0839,12162,032.1,045.6,0.213,754.7,01.17,0.508
2017-03-23 01:19:00,1721E-3,5C000400,-0724,0840,12040,032.2,045.6,0.213,754.6,01.17,0.508
2017-03-23 01:20:00,1741E-3,5C000400,-0724,0839,12102,032.2,045.6,0.213,754.7,01.17,0.508
2017-03-23 01:21:00,1648E-3,5C000400,-0724,0839,11970,032.2,045.6,0.213,754.7,01.17,0.508
2017-03-23 01:22:00,1761E-3,5C000400,-0724,0840,11979,032.2,045.6,0.213,754.6,01.17,0.508
2017-03-23 01:23:00,1839E-3,5C000400,-0724,0839,11868,032.1,045.6,0.213,754.7,01.17,0.508
2017-03-23 01:24:00,1737E-3,5C000400,-0724,0839,12041,032.2,045.6,0.212,754.6,01.17,0.508
2017-03-23 01:25:00,1782E-3,5C000400,-0724,0839,12074,032.2,045.6,0.213,754.5,01.17,0.508
2017-03-23 01:26:00,1682E-3,5C000400,-0724,0839,11985,032.1,045.6,0.213,754.7,01.17,0.508
2017-03-23 01:27:00,1735E-3,5C000400,-0724,0840,11818,032.2,045.6,0.213,754.5,01.17,0.508
2017-03-23 01:28:00,1753E-3,5C000400,-0724,0839,11988,032.2,045.6,0.213,754.7,01.17,0.508
2017-03-23 01:29:00,1839E-3,5C000400,-0724,0839,11982,032.1,045.6,0.213,754.5,01.17,0.508
2017-03-23 01:30:00,1799E-3,5C000400,-0724,0839,12068,032.2,045.6,0.213,754.6,01.17,0.508
2017-03-23 01:31:00,1660E-3,5C000400,-0724,0839,12007,032.1,045.6,0.212,754.7,01.17,0.508
2017-03-23 01:32:00,1848E-3,5C000400,-0724,0839,12078,032.1,045.6,0.213,754.6,01.17,0.508
2017-03-23 01:33:00,1679E-3,5C000400,-0724,0839,12080,032.2,045.6,0.213,754.5,01.17,0.508
2017-03-23 01:34:00,1729E-3,5C000400,-0724,0839,11959,032.1,045.6,0.213,754.7,01.17,0.508
2017-03-23 01:35:00,1823E-3,5C000400,-0724,0839,11883,032.1,045.6,0.213,754.6,01.17,0.508
2017-03-23 01:36:00,1779E-3,5C000400,-0724,0840,11941,032.1,045.6,0.213,754.4,01.17,0.508
2017-03-23 01:37:00,1695E-3,5C000400,-0724,0839,12030,032.1,045.6,0.213,754.5,01.17,0.508
2017-03-23 01:38:00,1779E-3,5C000400,-0724,0839,12204,032.1,045.6,0.213,754.6,01.17,0.508
2017-03-23 01:39:00,1697E-3,5C000400,-0724,0838,11957,032.1,045.6,0.213,754.7,01.17,0.508
2017-03-23 01:40:00,1768E-3,5C000400,-0724,0840,11966,032.1,045.6,0.212,754.7,01.17,0.508
2017-03-23 01:41:00,1735E-3,5C000400,-0724,0839,11983,032.2,045.6,0.213,754.7,01.17,0.508
2017-03-23 01:42:00,1845E-3,5C000400,-0724,0839,12182,032.1,045.6,0.213,754.7,01.17,0.508
2017-03-23 01:43:00,1794E-3,5C000400,-0724,0840,11985,032.2,045.6,0.213,754.8,01.17,0.508
2017-03-23 01:44:00,1754E-3,5C000400,-0724,0840,12105,032.1,045.6,0.213,754.9,01.17,0.508
2017-03-23 01:45:00,1781E-3,5C000400,-0724,0839,12068,032.1,045.6,0.212,754.9,01.17,0.508
2017-03-23 01:46:00,1741E-3,5C000400,-0724,0840,11979,032.1,045.6,0.213,754.9,01.17,0.508
2017-03-23 01:47:00,1778E-3,5C000400,-0724,0839,12024,032.2,045.6,0.213,755.0,01.17,0.508
2017-03-23 01:48:00,1746E-3,5C000400,-0724,0839,11940,032.1,045.6,0.213,755.0,01.17,0.508
2017-03-23 01:49:00,1640E-3,5C000400,-0724,0839,11884,032.2,045.6,0.213,754.9,01.17,0.508
2017-03-23 01:50:00,1594E-3,5C000400,-0724,0840,11987,032.1,045.6,0.213,754.8,01.17,0.508
2017-03-23 01:51:00,1720E-3,5C000400,-0724,0840,12062,032.1,045.6,0.213,755.0,01.17,0.508
2017-03-23 01:52:00,1763E-3,5C000400,-0724,0839,12099,032.2,045.6,0.213,755.0,01.17,0.508
2017-03-23 01:53:00,1787E-3,5C000400,-0724,0840,12101,032.2,045.6,0.213,754.8,01.17,0.508
2017-03-23 01:54:00,1727E-3,5C000400,-0724,0839,12146,032.1,045.6,0.213,754.9,01.17,0.508
2017-03-23 01:55:00,1726E-3,5C000400,-0724,0839,12085,032.1,045.6,0.213,754.7,01.17,0.508
2017-03-23 01:56:00,1821E-3,5C000400,-0724,0840,11976,032.1,045.6,0.213,754.9,01.17,0.508
2017-03-23 01:57:00,1847E-3,5C000400,-0724,0840,12095,032.1,045.6,0.212,754.8,01.17,0.508
2017-03-23 01:58:00,1798E-3,5C000400,-0724,0839,11949,032.2,045.6,0.213,754.9,01.17,0.508
2017-03-23 01:59:00,1834E-3,5C000400,-0724,0840,12082,032.2,045.6,0.213,755.0,01.17,0.508
2017-03-23 02:00:00,1656E-3,5C000400,-0724,0840,11875,032.1,045.6,0.213,754.9,01.17,0.508
2017-03-23 02:01:00,1724E-3,5C000400,-0724,0840,11936,032.2,045.6,0.213,754.9,01.17,0.508
2017-03-23 02:02:00,1774E-3,5C000400,-0724,0839,12125,032.2,045.6,0.212,754.8,01.17,0.508
2017-03-23 02:03:00,1765E-3,5C000400,-0724,0839,12049,032.2,045.6,0.213,754.9,01.17,0.508
2017-03-23 02:04:00,1693E-3,5C000400,-0724,0840,12077,032.2,045.6,0.212,754.8,01.17,0.508
2017-03-23 02:05:00,1662E-3,5C000400,-0724,0839,12071,032.2,045.6,0.213,754.9,01.17,0.508
2017-03-23 02:06:00,1802E-3,5C000400,-0724,0839,12049,032.2,045.6,0.213,754.7,01.17,0.508
2017-03-23 02:07:00,1840E-3,5C000400,-0724,0839,11926,032.2,045.6,0.213,754.8,01.17,0.508
2017-03-23 02:08:00,1710E-3,5C000400,-0724,0839,12079,032.2,045.6,0.213,754.8,01.17,0.508
2017-03-23 02:09:00,1778E-3,5C000400,-0724,0840,12114,032.2,045.6,0.213,755.0,01.17,0.508
2017-03-23 02:10:00,1790E-3,5C000400,-0724,0839,12126,032.2,045.6,0.213,754.8,01.17,0.508
2017-03-23 02:11:00,1816E-3,5C000400,-0724,0839,12072,032.2,045.6,0.212,754.8,01.17,0.508
2017-03-23 02:12:00,1757E-3,5C000400,-0724,0840,12025,032.2,045.6,0.213,754.9,01.17,0.508
2017-03-23 02:13:00,1830E-3,5C000400,-0724,0840,11957,032.2,045.6,0.212,754.8,01.17,0.508
2017-03-23 02:14:00,1900E-3,5C000400,-0724,0839,11845,032.2,045.6,0.213,754.8,01.17,0.508
2017-03-23 02:15:00,1706E-3,5C000400,-0724,0839,12071,032.2,045.6,0.213,754.8,01.17,0.508
2017-03-23 02:16:00,1665E-3,5C000400,-0724,0840,12112,032.2,045.6,0.213,754.9,01.17,0.508
2017-03-23 02:17:00,1814E-3,5C000400,-0724,0840,12064,032.2,045.6,0.213,755.1,01.17,0.508
2017-03-23 02:18:00,1673E-3,5C000400,-0724,0840,11974,032.2,045.6,0.213,754.7,01.17,0.508
2017-03-23 02:19:00,1645E-3,5C000400,-0724,0839,11990,032.2,045.6,0.213,754.7,01.17,0.508
2017-03-23 02:20:00,1786E-3,5C000400,-0724,0840,11903,032.2,045.6,0.212,754.8,01.17,0.508
2017-03-23 02:21:00,1602E-3,5C000400,-0724,0839,12079,032.2,045.6,0.213,754.9,01.17,0.508
2017-03-23 02:22:00,1826E-3,5C000400,-0724,0839,12154,032.2,045.6,0.213,754.7,01.17,0.508
2017-03-23 02:23:00,1602E-3,5C000400,-0724,0840,12003,032.2,045.6,0.212,754.7,01.17,0.508
2017-03-23 02:24:00,1723E-3,5C000400,-0724,0840,11948,032.2,045.6,0.213,754.7,01.17,0.508
2017-03-23 02:25:00,1680E-3,5C000400,-0724,0840,11943,032.2,045.6,0.212,754.7,01.17,0.508
2017-03-23 02:26:00,1786E-3,5C000400,-0724,0839,12065,032.2,045.6,0.213,755.0,01.17,0.508
2017-03-23 02:27:00,1815E-3,5C000400,-0724,0839,11956,032.2,045.6,0.212,755.0,01.17,0.508
2017-03-23 02:28:00,1742E-3,5C000400,-0724,0839,12105,032.2,045.6,0.213,754.8,01.17,0.508
2017-03-23 02:29:00,1663E-3,5C000400,-0724,0839,12118,032.2,045.6,0.213,754.9,01.17,0.508
2017-03-23 02:30:00,1720E-3,5C000400,-0724,0839,12121,032.2,045.6,0.213,754.9,01.17,0.508
2017-03-23 02:31:00,1754E-3,5C000400,-0724,0840,11995,032.2,045.6,0.213,754.8,01.17,0.508
2017-03-23 02:32:00,1623E-3,5C000400,-0724,0839,12093,032.2,045.6,0.213,754.7,01.17,0.508
2017-03-23 02:33:00,1701E-3,5C000400,-0724,0839,11990,032.2,045.6,0.213,754.7,01.17,0.508
2017-03-23 02:34:00,1747E-3,5C000400,-0724,0839,12050,032.2,045.6,0.213,754.7,01.17,0.508
2017-03-23 02:35:00,1766E-3,5C000400,-0724,0840,12064,032.2,045.6,0.213,754.8,01.17,0.508
2017-03-23 02:36:00,1725E-3,5C000400,-0724,0840,12062,032.2,045.6,0.212,754.8,01.17,0.508
2017-03-23 02:37:00,1733E-3,5C000400,-0724,0840,12053,032.2,045.6,0.212,754.6,01.17,0.508
2017-03-23 02:38:00,1821E-3,5C000400,-0724,0839,12057,032.2,045.6,0.213,754.4,01.17,0.508
2017-03-23 02:39:00,1792E-3,5C000400,-0724,0840,12046,032.3,045.6,0.213,754.6,01.17,0.508
2017-03-23 02:40:00,1848E-3,5C000400,-0724,0840,11934,032.3,045.6,0.213,754.6,01.17,0.508
2017-03-23 02:41:00,1548E-3,5C000400,-0724,0840,12106,032.3,045.6,0.212,754.5,01.17,0.508
2017-03-23 02:42:00,1742E-3,5C000400,-0724,0839,12019,032.2,045.6,0.213,754.5,01.17,0.508
2017-03-23 02:43:00,1793E-3,5C000400,-0724,0839,11981,032.3,045.6,0.213,754.6,01.17,0.508
2017-03-23 02:44:00,1735E-3,5C000400,-0724,0839,12098,032.3,045.6,0.212,754.5,01.17,0.508
2017-03-23 02:45:00,1642E-3,5C000400,-0724,0841,11981,032.3,045.6,0.212,754.3,01.17,0.508
2017-03-23 02:46:00,1865E-3,5C000400,-0724,0839,12003,032.3,045.6,0.213,754.5,01.17,0.508
2017-03-23 02:47:00,1751E-3,5C000400,-0724,0839,12124,032.3,045.6,0.212,754.6,01.17,0.508
2017-03-23 02:48:00,1740E-3,5C000400,-0724,0840,12041,032.3,045.6,0.213,754.5,01.17,0.508
2017-03-23 02:49:00,1797E-3,5C000400,-0724,0840,11978,032.3,045.6,0.212,754.7,01.17,0.508
2017-03-23 02:50:00,1878E-3,5C000400,-0724,0839,12038,032.3,045.6,0.213,754.7,01.17,0.508
2017-03-23 02:51:00,1649E-3,5C000400,-0724,0838,12091,032.3,045.6,0.213,754.6,01.17,0.508
2017-03-23 02:52:00,1805E-3,5C000400,-0724,0840,12030,032.3,045.6,0.212,754.6,01.17,0.508
2017-03-23 02:53:00,1838E-3,5C000400,-0724,0840,12045,032.3,045.6,0.212,754.7,01.17,0.508
2017-03-23 02:54:00,1666E-3,5C000400,-0724,0839,12048,032.3,045.6,0.212,754.7,01.17,0.508
2017-03-23 02:55:00,1788E-3,5C000400,-0724,0840,12141,032.3,045.6,0.213,754.8,01.17,0.508
2017-03-23 02:56:00,1710E-3,5C000400,-0724,0839,11956,032.3,045.6,0.212,754.7,01.17,0.508
2017-03-23 02:57:00,1720E-3,5C000400,-0724,0840,11918,032.3,045.6,0.213,754.9,01.17,0.508
2017-03-23 02:58:00,1703E-3,5C000400,-0724,0839,12028,032.3,045.6,0.213,754.9,01.17,0.508
2017-03-23 02:59:00,1740E-3,5C000400,-0724,0839,12051,032.3,045.6,0.212,754.9,01.17,0.508
2017-03-23 03:00:00,1877E-3,5C000400,-0724,0839,11902,032.3,045.6,0.213,754.8,01.17,0.508
2017-03-23 03:01:00,1769E-3,5C000400,-0724,0840,11984,032.3,045.6,0.212,754.9,01.17,0.508
2017-03-23 03:02:00,1756E-3,5C000400,-0724,0839,12042,032.3,045.6,0.213,755.0,01.17,0.508
2017-03-23 03:03:00,1674E-3,5C000400,-0724,0840,11923,032.3,045.6,0.212,755.1,01.16,0.508
2017-03-23 03:04:00,1760E-3,5C000400,-0724,0839,12199,032.3,045.6,0.212,755.0,01.17,0.508
2017-03-23 03:05:00,1751E-3,5C000400,-0724,0840,11961,032.3,045.6,0.213,754.9,01.17,0.508
2017-03-23 03:06:00,1707E-3,5C000400,-0724,0839,11916,032.3,045.6,0.213,754.7,01.17,0.508
2017-03-23 03:07:00,1891E-3,5C000400,-0724,0840,12049,032.3,045.6,0.213,754.8,01.17,0.508
2017-03-23 03:08:00,1695E-3,5C000400,-0724,0839,12074,032.3,045.6,0.212,754.8,01.17,0.508
2017-03-23 03:09:00,1703E-3,5C000400,-0724,0840,12050,032.3,045.6,0.213,754.6,01.17,0.508
2017-03-23 03:10:00,1877E-3,5C000400,-0724,0839,11958,032.3,045.6,0.213,754.7,01.17,0.508
2017-03-23 03:11:00,1762E-3,5C000400,-0724,0839,11995,032.3,045.6,0.212,754.6,01.17,0.508
2017-03-23 03:12:00,1623E-3,5C000400,-0724,0839,12009,032.4,045.6,0.212,754.6,01.17,0.508
2017-03-23 03:13:00,1734E-3,5C000400,-0724,0840,12093,032.3,045.6,0.212,754.6,01.17,0.508
2017-03-23 03:14:00,1850E-3,5C000400,-0724,0839,12056,032.3,045.6,0.212,754.7,01.17,0.508
2017-03-23 03:15:00,1856E-3,5C000400,-0724,0839,12048,032.4,045.6,0.212,754.7,01.17,0.508
2017-03-23 03:16:00,1708E-3,5C000400,-0724,0840,12121,032.4,045.6,0.212,754.5,01.17,0.508
2017-03-23 03:17:00,1743E-3,5C000400,-0724,0840,12073,032.4,045.6,0.212,754.4,01.17,0.508
2017-03-23 03:18:00,1750E-3,5C000400,-0724,0840,12187,032.4,045.6,0.212,754.6,01.17,0.508
2017-03-23 03:19:00,1819E-3,5C000400,-0724,0839,11854,032.4,045.6,0.212,754.6,01.17,0.508
2017-03-23 03:20:00,1864E-3,5C000400,-0724,0839,11963,032.4,045.6,0.212,754.6,01.17,0.508
2017-03-23 03:21:00,1772E-3,5C000400,-0724,0839,12004,032.4,045.6,0.213,754.5,01.17,0.508
2017-03-23 03:22:00,1771E-3,5C000400,-0724,0840,11970,032.4,045.6,0.212,754.4,01.17,0.508
2017-03-23 03:23:00,1768E-3,5C000400,-0724,0840,12264,032.4,045.6,0.212,754.5,01.17,0.508
2017-03-23 03:24:00,1766E-3,5C000400,-0724,0839,12045,032.4,045.6,0.212,754.3,01.17,0.508
2017-03-23 03:25:00,1690E-3,5C000400,-0724,0840,11937,032.4,045.6,0.212,754.4,01.17,0.508
2017-03-23 03:26:00,1706E-3,5C000400,-0724,0840,11959,032.4,045.6,0.212,754.5,01.17,0.508
2017-03-23 03:27:00,1697E-3,5C000400,-0724,0840,12057,032.4,045.6,0.212,754.5,01.17,0.508
2017-03-23 03:28:00,1732E-3,5C000400,-0724,0840,11880,032.4,045.6,0.213,754.4,01.17,0.508
2017-03-23 03:29:00,1714E-3,5C000400,-0724,0839,12075,032.4,045.6,0.212,754.3,01.17,0.508
2017-03-23 03:30:00,1735E-3,5C000400,-0724,0839,11977,032.4,045.6,0.212,754.2,01.17,0.508
2017-03-23 03:31:00,1656E-3,5C000400,-0724,0839,12029,032.4,045.6,0.212,754.2,01.17,0.508
2017-03-23 03:32:00,1819E-3,5C000400,-0724,0840,12011,032.4,045.6,0.213,754.3,01.17,0.508
2017-03-23 03:33:00,1666E-3,5C000400,-0724,0840,12004,032.4,045.6,0.212,754.3,01.17,0.508
2017-03-23 03:34:00,1736E-3,5C000400,-0724,0839,11951,032.4,045.6,0.213,754.4,01.17,0.508
2017-03-23 03:35:00,1789E-3,5C000400,-0724,0839,12010,032.4,045.6,0.212,754.3,01.17,0.508
2017-03-23 03:36:00,1804E-3,5C000400,-0724,0839,12074,032.4,045.6,0.212,754.4,01.17,0.508
2017-03-23 03:37:00,1720E-3,5C000400,-0724,0840,12024,032.4,045.6,0.212,754.5,01.17,0.508
2017-03-23 03:38:00,1802E-3,5C000400,-0724,0840,12007,032.4,045.6,0.212,754.5,01.17,0.508
2017-03-23 03:39:00,1780E-3,5C000400,-0724,0840,12026,032.4,045.6,0.212,754.3,01.17,0.508
2017-03-23 03:40:00,1669E-3,5C000400,-0724,0840,12096,032.4,045.6,0.212,754.4,01.17,0.508
2017-03-23 03:41:00,1666E-3,5C000400,-0724,0839,11900,032.4,045.6,0.212,754.5,01.17,0.508
2017-03-23 03:42:00,1757E-3,5C000400,-0724,0839,11908,032.4,045.6,0.212,754.4,01.17,0.508
2017-03-23 03:43:00,1798E-3,5C000400,-0724,0840,12062,032.4,045.6,0.212,754.1,01.17,0.508
2017-03-23 03:44:00,1719E-3,5C000400,-0724,0840,12114,032.4,045.6,0.212,754.2,01.17,0.508
2017-03-23 03:45:00,1742E-3,5C000400,-0724,0840,12058,032.4,045.6,0.213,754.4,01.17,0.508
2017-03-23 03:46:00,1778E-3,5C000400,-0724,0840,12072,032.4,045.6,0.212,754.3,01.17,0.508
2017-03-23 03:47:00,1780E-3,5C000400,-0724,0839,12071,032.5,045.6,0.212,754.3,01.17,0.508
2017-03-23 03:48:00,1773E-3,5C000400,-0724,0840,11936,032.5,045.6,0.212,754.2,01.17,0.508
2017-03-23 03:49:00,1624E-3,5C000400,-0724,0840,11978,032.5,045.6,0.213,753.9,01.17,0.508
2017-03-23 03:50:00,1652E-3,5C000400,-0724,0839,11876,032.5,045.6,0.212,754.3,01.17,0.508
2017-03-23 03:51:00,1606E-3,5C000400,-0724,0839,11979,032.5,045.6,0.212,754.3,01.17,0.508
2017-03-23 03:52:00,1581E-3,5C000400,-0724,0839,11948,032.5,045.6,0.212,754.4,01.17,0.508
2017-03-23 03:53:00,1802E-3,5C000400,-0724,0840,12079,032.5,045.6,0.212,754.2,01.17,0.508
2017-03-23 03:54:00,1732E-3,5C000400,-0724,0839,12031,032.5,045.6,0.212,754.3,01.17,0.508
2017-03-23 03:55:00,1799E-3,5C000400,-0724,0839,12028,032.5,045.6,0.212,754.2,01.17,0.508
2017-03-23 03:56:00,1657E-3,5C000400,-0724,0840,12010,032.5,045.6,0.212,754.3,01.17,0.508
2017-03-23 03:57:00,1776E-3,5C000400,-0724,0840,12136,032.5,045.6,0.212,754.3,01.17,0.508
2017-03-23 03:58:00,1772E-3,5C000400,-0724,0840,11979,032.5,045.6,0.212,754.1,01.17,0.508
2017-03-23 03:59:00,1855E-3,5C000400,-0724,0840,11940,032.5,045.6,0.212,754.2,01.17,0.508
2017-03-23 04:00:00,1773E-3,5C000400,-0724,0839,12019,032.5,045.6,0.212,754.3,01.17,0.508
2017-03-23 04:01:00,1695E-3,5C000400,-0724,0839,12092,032.5,045.6,0.212,754.0,01.17,0.508
2017-03-23 04:02:00,1766E-3,5C000400,-0724,0839,12106,032.5,045.6,0.212,754.2,01.17,0.508
2017-03-23 04:03:00,1711E-3,5C000400,-0724,0840,12047,032.5,045.6,0.212,753.8,01.17,0.508
2017-03-23 04:04:00,1724E-3,5C000400,-0724,0840,12034,032.5,045.6,0.212,754.1,01.17,0.508
2017-03-23 04:05:00,1684E-3,5C000400,-0724,0839,12058,032.5,045.6,0.212,754.0,01.17,0.508
2017-03-23 04:06:00,1936E-3,5C000400,-0724,0840,12123,032.5,045.6,0.212,754.0,01.17,0.508
2017-03-23 04:07:00,1699E-3,5C000400,-0724,0840,12077,032.5,045.6,0.212,753.8,01.17,0.508
2017-03-23 04:08:00,1696E-3,5C000400,-0724,0840,12138,032.5,045.6,0.212,753.8,01.17,0.508
2017-03-23 04:09:00,1810E-3,5C000400,-0724,0839,11911,032.5,045.6,0.212,753.7,01.17,0.508
2017-03-23 04:10:00,1584E-3,5C000400,-0724,0839,11978,032.5,045.6,0.212,754.0,01.17,0.508
2017-03-23 04:11:00,1721E-3,5C000400,-0724,0840,11994,032.5,045.6,0.212,753.8,01.17,0.508
2017-03-23 04:12:00,1871E-3,5C000400,-0724,0839,11987,032.5,045.6,0.212,753.7,01.17,0.508
2017-03-23 04:13:00,1633E-3,5C000400,-0724,0839,12025,032.5,045.6,0.212,753.8,01.17,0.508
2017-03-23 04:14:00,1766E-3,5C000400,-0724,0840,11720,032.5,045.6,0.212,753.8,01.17,0.508
2017-03-23 04:15:00,1753E-3,5C000400,-0724,0840,12093,032.5,045.6,0.212,753.7,01.17,0.508
2017-03-23 04:16:00,1707E-3,5C000400,-0724,0840,12056,032.5,045.6,0.212,753.7,01.17,0.508
2017-03-23 04:17:00,1781E-3,5C000400,-0724,0840,11976,032.5,045.6,0.212,753.8,01.17,0.508
2017-03-23 04:18:00,1703E-3,5C000400,-0724,0840,11893,032.5,045.6,0.212,753.8,01.17,0.508
2017-03-23 04:19:00,1722E-3,5C000400,-0724,0839,12026,032.5,045.6,0.212,753.6,01.17,0.508
2017-03-23 04:20:00,1585E-3,5C000400,-0724,0839,12080,032.6,045.6,0.212,753.7,01.17,0.508